OPS 6432

Satellite information

Favourite Embed

Satellite Type and Status

PAYLOADIN ORBIT

Key statistics

Satellite OPS 6432 at a glance.

Uptime

15529

Days in orbit

Revolutions

≈ 13.9

Per day

Orbit

LEO

Low Earth Orbit

Inclination

63.3

Latest

Satellite identification and parameters

Extended collection of information and parameters for OPS 6432.

Object identification

Identified? True

Debris? False

Object name: OPS 6432

International designator: 1983-056A

Object number (NORAD): 14112

Object ID (CCSDS): 14112

Country: UNITED STATES OF AMERICA (US)

Current information (Y/N): Y

RCS size: LARGE

Orbital parameters

Period: 103.791 minutes

Inclination: 63.3045 deg

SMA: 7315.896 km

Apoapsis: 1457.578 km

Periapsis: 417.943 km

RAAN: 332.2014 deg

Eccentricy: 0.07105314

Argument of periapsis: 129.7978 deg

Mean anomaly: 236.7878 deg

Mean motion: 13.87399437 rev/day

Mean motion (dot): 0.00004902 rev/day2

B* drag term: 0.00050712419 1/REarth

Two-line elements (TLE)

Creation date: Dec. 12, 2025, 10:14 a.m.

Reference frame: TEME

Reference center: EARTH

Epoch: Dec. 12, 2025, 7:01 a.m. UTC

TLE line 0: 0 OPS 6432

TLE line 1: 1 14112U 83056A 25346.29284875 .00004902 00000-0 50712-3 0 9999

TLE line 2: 2 14112 63.3045 332.2014 0710531 129.7978 236.7878 13.87399437 82350

Live tracking on map

Real-time ground track for satellite OPS 6432.

In-orbit conjunctions

There are no conjunctions computed for OPS 6432, at the moment. Check back to stay up to date, as we update our databases every day.

Go to all conjunctions

Associated space launch

The Parcae satellites were passive ELINT satellites. MSD satellites were dispensers of triplets of ocean surveillance satellites.

OPS 6432 was lifted into orbit during the mission ‘Atlas H | Parcae 6A,B,C & MSD 6’, on board a Atlas H space rocket.

The launch took place on June 9, 1983, 11:23 p.m. from Space Launch Complex 3E.

For more information about the launch, click the button.

Launch to space Atlas H | Parcae 6A,B,C & MSD 6
Atlas H | Parcae 6A,B,C & MSD 6

Agency: N/A

Status: Launch Successful

Launch date: June 9, 1983, 11:23 p.m. UTC

Rocket: Atlas H

Launch pad: Space Launch Complex 3E

Location: Vandenberg SFB, CA, USA

...

Latest news about this satellite

There are no fresh news available about this satellite. Check back as we update our databases every day.


Newsletter sign-up

Weekly statistics, charts and insights to help you stay on top of the space industry.